Location: Chervonnoye
(48.6000°N, 34.4000°E)
Time: 05:51:46
(UTC+00:00)

Cosmos 2322 - Pass Details

Date: 23 November 2020
Orbit: 838 x 856 km, 71.0° (Epoch: 18 January)

Event Time Altitude Azimuth Distance (km) Brightness Sun altitude
Rises 14:39:55 0° 214° (SSW) 3,382 7.9 -7.5°
Reaches altitude 10° 14:42:22 10° 216° (SW) 2,453 7.1 -7.9°
Maximum altitude 14:47:58 70° 300° (WNW) 897 4.0 -8.8°
Drops below altitude 10° 14:53:39 10° 25° (NNE) 2,479 5.7 -9.7°
Enters shadow 14:55:27 - 27° (NNE) 3,158 6.2 -9.9°
